Darstellungsparameter: Aktuell verwendete Einstellungen:
Skalierung der Graphiken ... ?
xyx+y,   Skalierungsfaktor:      Skalierung: Modus: x, Faktor: 1
Darstellungszeitraum ... ?
Vom - - bis: - -   Zeitraum: 21.05.2019 - 21.05.2019
Min/Max/Avg-Anzeige ... ?
Zeige MMA aktuell
Zeige MMA Monat
Zeige MMA alles
Zeige --A aktuell
Zeige --A Monat
Zeige --A alles
Keine MMA-Anzeige
MMA:
Keine MMA-Graphiken
MMA-Basis: 21.05.2019 - 21.05.2019
Quicknavigation für Darstellung... ?
Tage:      1T, 2T, 3T, 5T -1T -2T -3T -5T +1T +2T +3T +5T
Wochen: 1W, 2W, 3W -1W -2W -3W +1W +2W +3W
Monate: 1M, 3M, 6M -1M -3M -6M +1M +3M +6M
Jahre:    1J, 3J, 5J, 10J -1J -3J -5J -10J +1J +3J +5J +10J
Nutze für die Darstellung ... ?
Originaldaten oder Mittelwerte auf ...
Stundenbasis Tagesbasis Wochenbasis
Monatsbasis Jahresbasis      Datenbasis: Original-Daten
Darstellen als:
Statistik (Auto) Statistik J:M      Darstellung:
Zur Graphik,    zurück zur Übersicht aller Sensoren.
 
Tabellarische Datenbersicht: ?
 
Sensor: Nr:Datum:Temp:Abs-Feuchte:Windchill:Wind:
Aussen-T/F 1 21-05-2019 00:00:00 14.4 C 10.51 g/m*3 14.4 C 6.4 km/h
2 21-05-2019 00:05:00 14.4 C 10.63 g/m*3 14.4 C 9.7 km/h
3 21-05-2019 00:10:00 14.3 C 10.57 g/m*3 14.3 C 16.1 km/h
4 21-05-2019 00:15:00 14.3 C 10.57 g/m*3 14.3 C 9.7 km/h
5 21-05-2019 00:20:00 14.3 C 10.57 g/m*3 14.3 C 11.3 km/h
6 21-05-2019 00:25:00 14.3 C 10.57 g/m*3 14.3 C 4.8 km/h
7 21-05-2019 00:30:00 14.2 C 10.62 g/m*3 14.2 C 9.7 km/h
8 21-05-2019 00:35:00 14.2 C 10.62 g/m*3 14.2 C 4.8 km/h
9 21-05-2019 00:40:00 14.2 C 10.62 g/m*3 14.2 C 11.3 km/h
10 21-05-2019 00:45:00 14.1 C 10.68 g/m*3 14.1 C 9.7 km/h
11 21-05-2019 00:50:00 14.1 C 10.68 g/m*3 14.1 C 12.9 km/h
12 21-05-2019 00:55:00 14 C 10.61 g/m*3 14 C 8.1 km/h
13 21-05-2019 01:00:00 13.9 C 10.67 g/m*3 13.9 C 4.8 km/h
14 21-05-2019 01:05:00 13.9 C 10.67 g/m*3 13.9 C 11.3 km/h
15 21-05-2019 01:10:00 13.9 C 10.67 g/m*3 13.9 C 9.7 km/h
16 21-05-2019 01:15:00 13.8 C 10.6 g/m*3 13.8 C 11.3 km/h
17 21-05-2019 01:20:00 13.8 C 10.6 g/m*3 13.8 C 11.3 km/h
18 21-05-2019 01:25:00 13.8 C 10.6 g/m*3 13.8 C 8.1 km/h
19 21-05-2019 01:30:00 13.8 C 10.72 g/m*3 13.8 C 9.7 km/h
20 21-05-2019 01:35:00 13.8 C 10.72 g/m*3 13.8 C 9.7 km/h
21 21-05-2019 01:40:00 13.8 C 10.72 g/m*3 13.8 C 8.1 km/h
22 21-05-2019 01:45:00 13.7 C 10.66 g/m*3 13.7 C 16.1 km/h
23 21-05-2019 01:50:00 13.7 C 10.66 g/m*3 13.7 C 4.8 km/h
24 21-05-2019 01:55:00 13.7 C 10.66 g/m*3 13.7 C 9.7 km/h
25 21-05-2019 02:00:00 13.7 C 10.78 g/m*3 13.7 C 8.1 km/h
Sensor: Nr:Datum:Temp:Abs-Feuchte:Windchill:Wind:
Aussen-T/F 26 21-05-2019 02:05:00 13.6 C 10.71 g/m*3 13.6 C 11.3 km/h
27 21-05-2019 02:10:00 13.6 C 10.71 g/m*3 13.6 C 11.3 km/h
28 21-05-2019 02:15:00 13.6 C 10.59 g/m*3 13.6 C 8.1 km/h
29 21-05-2019 02:20:00 13.6 C 10.59 g/m*3 13.6 C 8.1 km/h
30 21-05-2019 02:25:00 13.6 C 10.59 g/m*3 13.6 C 11.3 km/h
31 21-05-2019 02:30:00 13.6 C 10.59 g/m*3 13.6 C 6.4 km/h
32 21-05-2019 02:35:00 13.6 C 10.71 g/m*3 13.6 C 8.1 km/h
33 21-05-2019 02:40:00 13.6 C 10.71 g/m*3 13.6 C 1.6 km/h
34 21-05-2019 02:45:00 13.5 C 10.64 g/m*3 13.5 C 12.9 km/h
35 21-05-2019 02:50:00 13.4 C 10.58 g/m*3 13.4 C 6.4 km/h
36 21-05-2019 02:55:00 13.4 C 10.58 g/m*3 13.4 C 16.1 km/h
37 21-05-2019 03:00:00 13.4 C 10.58 g/m*3 13.4 C 4.8 km/h
38 21-05-2019 03:05:00 13.4 C 10.69 g/m*3 13.4 C 8.1 km/h
39 21-05-2019 03:10:00 13.3 C 10.51 g/m*3 13.3 C 6.4 km/h
40 21-05-2019 03:15:00 13.3 C 10.51 g/m*3 13.3 C 12.9 km/h
41 21-05-2019 03:20:00 13.3 C 10.51 g/m*3 13.3 C 3.2 km/h
42 21-05-2019 03:25:00 13.3 C 10.63 g/m*3 13.3 C 9.7 km/h
43 21-05-2019 03:30:00 13.3 C 10.51 g/m*3 13.3 C 9.7 km/h
44 21-05-2019 03:35:00 13.2 C 10.56 g/m*3 13.2 C 6.4 km/h
45 21-05-2019 03:40:00 13.2 C 10.56 g/m*3 13.2 C 1.6 km/h
46 21-05-2019 03:45:00 13.2 C 10.56 g/m*3 13.2 C 6.4 km/h
47 21-05-2019 03:50:00 13.2 C 10.45 g/m*3 13.2 C 11.3 km/h
48 21-05-2019 03:55:00 13.2 C 10.56 g/m*3 13.2 C 9.7 km/h
49 21-05-2019 04:00:00 13.2 C 10.56 g/m*3 13.2 C 8.1 km/h
50 21-05-2019 04:05:00 13.2 C 10.56 g/m*3 13.2 C 11.3 km/h
Sensor: Nr:Datum:Temp:Abs-Feuchte:Windchill:Wind:
Aussen-T/F 51 21-05-2019 04:10:00 13.1 C 10.5 g/m*3 13.1 C 6.4 km/h
52 21-05-2019 04:15:00 13.1 C 10.38 g/m*3 13.1 C 11.3 km/h
53 21-05-2019 04:20:00 13.1 C 10.38 g/m*3 13.1 C 9.7 km/h
54 21-05-2019 04:25:00 13.1 C 10.38 g/m*3 13.1 C 9.7 km/h
55 21-05-2019 04:30:00 13.1 C 10.38 g/m*3 13.1 C 6.4 km/h
56 21-05-2019 04:35:00 13.1 C 10.38 g/m*3 13.1 C 6.4 km/h
57 21-05-2019 04:40:00 13.1 C 10.38 g/m*3 13.1 C 1.6 km/h
58 21-05-2019 04:45:00 13.1 C 10.27 g/m*3 13.1 C 8.1 km/h
59 21-05-2019 04:50:00 13.1 C 10.27 g/m*3 13.1 C 6.4 km/h
60 21-05-2019 04:55:00 13.1 C 10.27 g/m*3 13.1 C 6.4 km/h
61 21-05-2019 05:00:00 13.1 C 10.27 g/m*3 13.1 C 9.7 km/h
62 21-05-2019 05:05:00 13.1 C 10.27 g/m*3 13.1 C 11.3 km/h
63 21-05-2019 05:10:00 13 C 10.21 g/m*3 13 C 16.1 km/h
64 21-05-2019 05:15:00 12.9 C 10.26 g/m*3 12.9 C 11.3 km/h
65 21-05-2019 05:20:00 12.8 C 10.19 g/m*3 12.8 C 8.1 km/h
66 21-05-2019 05:25:00 12.8 C 10.3 g/m*3 12.8 C 6.4 km/h
67 21-05-2019 05:30:00 12.7 C 10.24 g/m*3 12.7 C 12.9 km/h
68 21-05-2019 05:35:00 12.6 C 10.18 g/m*3 12.6 C 8.1 km/h
69 21-05-2019 05:40:00 12.5 C 10.11 g/m*3 12.5 C 8.1 km/h
70 21-05-2019 05:45:00 12.4 C 10.16 g/m*3 12.4 C 11.3 km/h
71 21-05-2019 05:50:00 12.4 C 10.16 g/m*3 12.4 C 8.1 km/h
72 21-05-2019 05:55:00 12.3 C 10.1 g/m*3 12.3 C 9.7 km/h
73 21-05-2019 06:00:00 12.3 C 10.1 g/m*3 12.3 C 3.2 km/h
74 21-05-2019 06:05:00 12.3 C 10.21 g/m*3 12.3 C 12.9 km/h
75 21-05-2019 06:10:00 12.3 C 10.21 g/m*3 12.3 C 9.7 km/h
Sensor: Nr:Datum:Temp:Abs-Feuchte:Windchill:Wind:
Aussen-T/F 76 21-05-2019 06:15:00 12.2 C 10.04 g/m*3 12.2 C 8.1 km/h
77 21-05-2019 06:20:00 12.2 C 10.04 g/m*3 12.2 C 16.1 km/h
78 21-05-2019 06:25:00 12.2 C 10.14 g/m*3 12.2 C 8.1 km/h
79 21-05-2019 06:30:00 12.2 C 10.14 g/m*3 12.2 C 12.9 km/h
80 21-05-2019 06:35:00 12.2 C 10.14 g/m*3 12.2 C 12.9 km/h
81 21-05-2019 06:40:00 12.2 C 10.14 g/m*3 12.2 C 11.3 km/h
82 21-05-2019 06:45:00 12.1 C 10.08 g/m*3 12.1 C 6.4 km/h
83 21-05-2019 06:50:00 12.2 C 10.14 g/m*3 12.2 C 8.1 km/h
84 21-05-2019 06:55:00 12.2 C 10.14 g/m*3 12.2 C 6.4 km/h
85 21-05-2019 07:00:00 12.2 C 10.14 g/m*3 12.2 C 3.2 km/h
86 21-05-2019 07:05:00 12.2 C 10.14 g/m*3 12.2 C 12.9 km/h
87 21-05-2019 07:10:00 12.2 C 10.14 g/m*3 12.2 C 12.9 km/h
88 21-05-2019 07:15:00 12.2 C 10.14 g/m*3 12.2 C 6.4 km/h
89 21-05-2019 07:20:00 12.2 C 10.14 g/m*3 12.2 C 6.4 km/h
90 21-05-2019 07:25:00 12.2 C 10.14 g/m*3 12.2 C 8.1 km/h
91 21-05-2019 07:30:00 12.2 C 10.14 g/m*3 12.2 C 11.3 km/h
92 21-05-2019 07:35:00 12.2 C 10.14 g/m*3 12.2 C 9.7 km/h
93 21-05-2019 07:40:00 12.3 C 10.21 g/m*3 12.3 C 4.8 km/h
94 21-05-2019 07:45:00 12.3 C 10.21 g/m*3 12.3 C 6.4 km/h
95 21-05-2019 07:50:00 12.3 C 10.21 g/m*3 12.3 C 14.5 km/h
96 21-05-2019 07:55:00 12.3 C 10.21 g/m*3 12.3 C 14.5 km/h
97 21-05-2019 08:00:00 12.3 C 10.1 g/m*3 12.3 C 8.1 km/h
98 21-05-2019 08:05:00 12.3 C 10.1 g/m*3 12.3 C 14.5 km/h
99 21-05-2019 08:10:00 12.3 C 10.21 g/m*3 12.3 C 9.7 km/h
100 21-05-2019 08:15:00 12.3 C 10.1 g/m*3 12.3 C 8.1 km/h
Sensor: Nr:Datum:Temp:Abs-Feuchte:Windchill:Wind:
Aussen-T/F 101 21-05-2019 08:20:00 12.3 C 10.1 g/m*3 12.3 C 11.3 km/h
102 21-05-2019 08:25:00 12.3 C 10.1 g/m*3 12.3 C 4.8 km/h
103 21-05-2019 08:30:00 12.3 C 10.21 g/m*3 12.3 C 12.9 km/h
104 21-05-2019 08:35:00 12.3 C 10.21 g/m*3 12.3 C 12.9 km/h
105 21-05-2019 08:40:00 12.3 C 10.21 g/m*3 12.3 C 12.9 km/h
106 21-05-2019 08:45:00 12.3 C 10.21 g/m*3 12.3 C 9.7 km/h
107 21-05-2019 08:50:00 12.3 C 10.21 g/m*3 12.3 C 12.9 km/h
108 21-05-2019 08:55:00 12.3 C 10.21 g/m*3 12.3 C 16.1 km/h
109 21-05-2019 09:00:00 12.3 C 10.21 g/m*3 12.3 C 12.9 km/h
110 21-05-2019 09:05:00 12.3 C 10.21 g/m*3 12.3 C 12.9 km/h
111 21-05-2019 09:10:00 12.3 C 10.21 g/m*3 12.3 C 14.5 km/h
112 21-05-2019 09:15:00 12.3 C 10.1 g/m*3 12.3 C 14.5 km/h
113 21-05-2019 09:20:00 12.3 C 10.21 g/m*3 12.3 C 9.7 km/h
114 21-05-2019 09:25:00 12.3 C 10.1 g/m*3 12.3 C 12.9 km/h
115 21-05-2019 09:30:00 12.3 C 10.1 g/m*3 12.3 C 14.5 km/h
116 21-05-2019 09:35:00 12.3 C 10.21 g/m*3 12.3 C 11.3 km/h
117 21-05-2019 09:40:00 12.3 C 10.1 g/m*3 12.3 C 14.5 km/h
118 21-05-2019 09:45:00 12.3 C 10.1 g/m*3 12.3 C 16.1 km/h
119 21-05-2019 09:50:00 12.3 C 10.21 g/m*3 12.3 C 9.7 km/h
120 21-05-2019 09:55:00 12.3 C 10.21 g/m*3 12.3 C 11.3 km/h
121 21-05-2019 10:00:00 12.3 C 10.21 g/m*3 12.3 C 12.9 km/h
122 21-05-2019 10:05:00 12.3 C 10.21 g/m*3 12.3 C 12.9 km/h
123 21-05-2019 10:10:00 12.3 C 10.21 g/m*3 12.3 C 8.1 km/h
124 21-05-2019 10:15:00 12.2 C 10.14 g/m*3 12.2 C 9.7 km/h
125 21-05-2019 10:20:00 12.2 C 10.14 g/m*3 12.2 C 20.9 km/h
Sensor: Nr:Datum:Temp:Abs-Feuchte:Windchill:Wind:
Aussen-T/F 126 21-05-2019 10:25:00 12.2 C 10.04 g/m*3 12.2 C 8.1 km/h
127 21-05-2019 10:30:00 12.2 C 10.04 g/m*3 12.2 C 14.5 km/h
128 21-05-2019 10:35:00 12.2 C 10.04 g/m*3 12.2 C 11.3 km/h
129 21-05-2019 10:40:00 12.2 C 10.04 g/m*3 12.2 C 11.3 km/h
130 21-05-2019 10:45:00 12.2 C 10.14 g/m*3 12.2 C 12.9 km/h
131 21-05-2019 10:50:00 12.2 C 10.14 g/m*3 12.2 C 8.1 km/h
132 21-05-2019 10:55:00 12.3 C 10.21 g/m*3 12.3 C 11.3 km/h
133 21-05-2019 11:00:00 12.2 C 10.14 g/m*3 12.2 C 17.7 km/h
134 21-05-2019 11:05:00 12.2 C 10.04 g/m*3 12.2 C 16.1 km/h
135 21-05-2019 11:10:00 12.2 C 10.04 g/m*3 12.2 C 12.9 km/h
136 21-05-2019 11:15:00 12.2 C 10.04 g/m*3 12.2 C 12.9 km/h
137 21-05-2019 11:20:00 12.2 C 10.04 g/m*3 12.2 C 16.1 km/h
138 21-05-2019 11:25:00 12.2 C 10.04 g/m*3 12.2 C 16.1 km/h
139 21-05-2019 11:30:00 12.1 C 9.97 g/m*3 12.1 C 27.4 km/h
140 21-05-2019 11:35:00 12.1 C 9.97 g/m*3 12.1 C 19.3 km/h
141 21-05-2019 11:40:00 12.1 C 9.97 g/m*3 12.1 C 12.9 km/h
142 21-05-2019 11:45:00 12.1 C 9.97 g/m*3 12.1 C 12.9 km/h
143 21-05-2019 11:50:00 12.1 C 9.97 g/m*3 12.1 C 12.9 km/h
144 21-05-2019 11:55:00 12.1 C 9.97 g/m*3 12.1 C 8.1 km/h
145 21-05-2019 12:00:00 12.1 C 9.97 g/m*3 12.1 C 9.7 km/h
146 21-05-2019 12:05:00 12.1 C 10.08 g/m*3 12.1 C 11.3 km/h
147 21-05-2019 12:10:00 12.1 C 10.08 g/m*3 12.1 C 11.3 km/h
148 21-05-2019 12:15:00 12.1 C 10.08 g/m*3 12.1 C 14.5 km/h
149 21-05-2019 12:20:00 12.1 C 10.08 g/m*3 12.1 C 4.8 km/h
150 21-05-2019 12:25:00 12.1 C 10.08 g/m*3 12.1 C 9.7 km/h
Sensor: Nr:Datum:Temp:Abs-Feuchte:Windchill:Wind:
Aussen-T/F 151 21-05-2019 12:30:00 12.1 C 10.08 g/m*3 12.1 C 14.5 km/h
152 21-05-2019 12:35:00 12.1 C 10.08 g/m*3 12.1 C 9.7 km/h
153 21-05-2019 12:40:00 12.2 C 10.14 g/m*3 12.2 C 9.7 km/h
154 21-05-2019 12:45:00 12.2 C 10.14 g/m*3 12.2 C 16.1 km/h
155 21-05-2019 12:50:00 12.1 C 9.97 g/m*3 12.1 C 11.3 km/h
156 21-05-2019 12:55:00 12.1 C 10.08 g/m*3 12.1 C 9.7 km/h
157 21-05-2019 13:00:00 12.1 C 10.08 g/m*3 12.1 C 8.1 km/h
158 21-05-2019 13:05:00 12.2 C 10.14 g/m*3 12.2 C 8.1 km/h
159 21-05-2019 13:10:00 12.2 C 10.14 g/m*3 12.2 C 4.8 km/h
160 21-05-2019 13:15:00 12.2 C 10.14 g/m*3 12.2 C 6.4 km/h
161 21-05-2019 13:20:00 12.2 C 10.14 g/m*3 12.2 C 6.4 km/h
162 21-05-2019 13:25:00 12.3 C 10.21 g/m*3 12.3 C 6.4 km/h
163 21-05-2019 13:30:00 12.2 C 10.14 g/m*3 12.2 C 8.1 km/h
164 21-05-2019 13:35:00 12.2 C 10.14 g/m*3 12.2 C 6.4 km/h
165 21-05-2019 13:40:00 12.3 C 10.21 g/m*3 12.3 C 0 km/h
166 21-05-2019 13:45:00 12.3 C 10.21 g/m*3 12.3 C 4.8 km/h
167 21-05-2019 13:50:00 12.3 C 10.21 g/m*3 12.3 C 6.4 km/h
168 21-05-2019 13:55:00 12.2 C 10.14 g/m*3 12.2 C 3.2 km/h
169 21-05-2019 14:00:00 12.2 C 10.14 g/m*3 12.2 C 8.1 km/h
170 21-05-2019 14:05:00 12.2 C 10.14 g/m*3 12.2 C 1.6 km/h
171 21-05-2019 14:10:00 12.2 C 10.14 g/m*3 12.2 C 1.6 km/h
172 21-05-2019 14:15:00 12.2 C 10.14 g/m*3 12.2 C 6.4 km/h
173 21-05-2019 14:20:00 12.2 C 10.14 g/m*3 12.2 C 6.4 km/h
174 21-05-2019 14:25:00 12.1 C 10.08 g/m*3 12.1 C 6.4 km/h
175 21-05-2019 14:30:00 12.1 C 10.08 g/m*3 12.1 C 8.1 km/h
Sensor: Nr:Datum:Temp:Abs-Feuchte:Windchill:Wind:
Aussen-T/F 176 21-05-2019 14:35:00 12.1 C 9.97 g/m*3 12.1 C 9.7 km/h
177 21-05-2019 14:40:00 12.2 C 10.14 g/m*3 12.2 C 8.1 km/h
178 21-05-2019 14:45:00 12.1 C 9.97 g/m*3 12.1 C 6.4 km/h
179 21-05-2019 14:50:00 12.1 C 9.97 g/m*3 12.1 C 9.7 km/h
180 21-05-2019 14:55:00 12.1 C 9.97 g/m*3 12.1 C 4.8 km/h
181 21-05-2019 15:00:00 12.1 C 9.97 g/m*3 12.1 C 11.3 km/h
182 21-05-2019 15:05:00 12.1 C 9.97 g/m*3 12.1 C 9.7 km/h
183 21-05-2019 15:10:00 12.1 C 9.97 g/m*3 12.1 C 12.9 km/h
184 21-05-2019 15:15:00 12.1 C 9.97 g/m*3 12.1 C 12.9 km/h
185 21-05-2019 15:20:00 12.1 C 9.97 g/m*3 12.1 C 9.7 km/h
186 21-05-2019 15:25:00 12.2 C 10.04 g/m*3 12.2 C 4.8 km/h
187 21-05-2019 15:30:00 12.2 C 10.04 g/m*3 12.2 C 12.9 km/h
188 21-05-2019 15:35:00 12.2 C 10.04 g/m*3 12.2 C 9.7 km/h
189 21-05-2019 15:40:00 12.2 C 10.04 g/m*3 12.2 C 8.1 km/h
190 21-05-2019 15:45:00 12.2 C 10.04 g/m*3 12.2 C 8.1 km/h
191 21-05-2019 15:50:00 12.2 C 10.04 g/m*3 12.2 C 3.2 km/h
192 21-05-2019 15:55:00 12.2 C 10.14 g/m*3 12.2 C 4.8 km/h
193 21-05-2019 16:00:00 12.2 C 10.14 g/m*3 12.2 C 11.3 km/h
194 21-05-2019 16:05:00 12.1 C 9.97 g/m*3 12.1 C 8.1 km/h
195 21-05-2019 16:10:00 12.1 C 10.08 g/m*3 12.1 C 4.8 km/h
196 21-05-2019 16:15:00 12.1 C 10.08 g/m*3 12.1 C 4.8 km/h
197 21-05-2019 16:20:00 12.1 C 10.08 g/m*3 12.1 C 11.3 km/h
198 21-05-2019 16:25:00 12.1 C 10.08 g/m*3 12.1 C 11.3 km/h
199 21-05-2019 16:30:00 12.1 C 10.08 g/m*3 12.1 C 6.4 km/h
200 21-05-2019 16:35:00 12.1 C 10.08 g/m*3 12.1 C 11.3 km/h
Sensor: Nr:Datum:Temp:Abs-Feuchte:Windchill:Wind:
Aussen-T/F 201 21-05-2019 16:40:00 12 C 10.02 g/m*3 12 C 16.1 km/h
202 21-05-2019 16:45:00 12 C 10.02 g/m*3 12 C 11.3 km/h
203 21-05-2019 16:50:00 12.1 C 10.08 g/m*3 12.1 C 11.3 km/h
204 21-05-2019 16:55:00 12.1 C 10.08 g/m*3 12.1 C 4.8 km/h
205 21-05-2019 17:00:00 12.1 C 10.19 g/m*3 12.1 C 1.6 km/h
206 21-05-2019 17:05:00 12.2 C 10.14 g/m*3 12.2 C 3.2 km/h
207 21-05-2019 17:10:00 12.2 C 10.14 g/m*3 12.2 C 9.7 km/h
208 21-05-2019 17:15:00 12.1 C 10.08 g/m*3 12.1 C 17.7 km/h
209 21-05-2019 17:20:00 12.2 C 10.14 g/m*3 12.2 C 9.7 km/h
210 21-05-2019 17:25:00 12.2 C 10.14 g/m*3 12.2 C 4.8 km/h
211 21-05-2019 17:30:00 12.2 C 10.14 g/m*3 12.2 C 3.2 km/h
212 21-05-2019 17:35:00 12.2 C 10.14 g/m*3 12.2 C 3.2 km/h
213 21-05-2019 17:40:00 12.2 C 10.14 g/m*3 12.2 C 12.9 km/h
214 21-05-2019 17:45:00 12.2 C 10.14 g/m*3 12.2 C 9.7 km/h
215 21-05-2019 17:50:00 12.2 C 10.14 g/m*3 12.2 C 8.1 km/h
216 21-05-2019 17:55:00 12.2 C 10.14 g/m*3 12.2 C 6.4 km/h
217 21-05-2019 18:00:00 12.2 C 10.14 g/m*3 12.2 C 12.9 km/h
218 21-05-2019 18:05:00 12.2 C 10.14 g/m*3 12.2 C 8.1 km/h
219 21-05-2019 18:10:00 12.2 C 10.14 g/m*3 12.2 C 8.1 km/h
220 21-05-2019 18:15:00 12.2 C 10.14 g/m*3 12.2 C 4.8 km/h
221 21-05-2019 18:20:00 12.3 C 10.21 g/m*3 12.3 C 4.8 km/h
222 21-05-2019 18:25:00 12.3 C 10.21 g/m*3 12.3 C 3.2 km/h
223 21-05-2019 18:30:00 12.3 C 10.21 g/m*3 12.3 C 0 km/h
224 21-05-2019 18:35:00 12.4 C 10.38 g/m*3 12.4 C 8.1 km/h
225 21-05-2019 18:40:00 12.3 C 10.21 g/m*3 12.3 C 8.1 km/h
Sensor: Nr:Datum:Temp:Abs-Feuchte:Windchill:Wind:
Aussen-T/F 226 21-05-2019 18:45:00 12.3 C 10.21 g/m*3 12.3 C 6.4 km/h
227 21-05-2019 18:50:00 12.3 C 10.21 g/m*3 12.3 C 9.7 km/h
228 21-05-2019 18:55:00 12.3 C 10.21 g/m*3 12.3 C 11.3 km/h
229 21-05-2019 19:00:00 12.4 C 10.27 g/m*3 12.4 C 8.1 km/h
230 21-05-2019 19:05:00 12.4 C 10.27 g/m*3 12.4 C 3.2 km/h
231 21-05-2019 19:10:00 12.4 C 10.27 g/m*3 12.4 C 9.7 km/h
232 21-05-2019 19:15:00 12.4 C 10.16 g/m*3 12.4 C 12.9 km/h
233 21-05-2019 19:20:00 12.4 C 10.16 g/m*3 12.4 C 14.5 km/h
234 21-05-2019 19:25:00 12.4 C 10.16 g/m*3 12.4 C 8.1 km/h
235 21-05-2019 19:30:00 12.4 C 10.16 g/m*3 12.4 C 4.8 km/h
236 21-05-2019 19:35:00 12.4 C 10.27 g/m*3 12.4 C 1.6 km/h
237 21-05-2019 19:40:00 12.4 C 10.27 g/m*3 12.4 C 12.9 km/h
238 21-05-2019 19:45:00 12.3 C 10.21 g/m*3 12.3 C 1.6 km/h
239 21-05-2019 19:50:00 12.3 C 10.21 g/m*3 12.3 C 3.2 km/h
240 21-05-2019 19:55:00 12.3 C 10.21 g/m*3 12.3 C 3.2 km/h
241 21-05-2019 20:00:00 12.3 C 10.21 g/m*3 12.3 C 3.2 km/h
242 21-05-2019 20:05:00 12.3 C 10.21 g/m*3 12.3 C 3.2 km/h
243 21-05-2019 20:10:00 12.3 C 10.32 g/m*3 12.3 C 3.2 km/h
244 21-05-2019 20:15:00 12.3 C 10.32 g/m*3 12.3 C 6.4 km/h
245 21-05-2019 20:20:00 12.2 C 10.25 g/m*3 12.2 C 9.7 km/h
246 21-05-2019 20:25:00 12.2 C 10.25 g/m*3 12.2 C 1.6 km/h
247 21-05-2019 20:30:00 12.2 C 10.25 g/m*3 12.2 C 1.6 km/h
248 21-05-2019 20:35:00 12.2 C 10.25 g/m*3 12.2 C 1.6 km/h
249 21-05-2019 20:40:00 12.2 C 10.25 g/m*3 12.2 C 1.6 km/h
250 21-05-2019 20:45:00 12.2 C 10.25 g/m*3 12.2 C 1.6 km/h
Sensor: Nr:Datum:Temp:Abs-Feuchte:Windchill:Wind:
Aussen-T/F 251 21-05-2019 20:50:00 12.1 C 10.19 g/m*3 12.1 C 8.1 km/h
252 21-05-2019 20:55:00 12.1 C 10.19 g/m*3 12.1 C 4.8 km/h
253 21-05-2019 21:00:00 12.1 C 10.19 g/m*3 12.1 C 0 km/h
254 21-05-2019 21:05:00 12.1 C 10.19 g/m*3 12.1 C 3.2 km/h
255 21-05-2019 21:10:00 12.1 C 10.19 g/m*3 12.1 C 4.8 km/h
256 21-05-2019 21:15:00 12.1 C 10.19 g/m*3 12.1 C 3.2 km/h
257 21-05-2019 21:20:00 12.1 C 10.19 g/m*3 12.1 C 1.6 km/h
258 21-05-2019 21:25:00 12.1 C 10.19 g/m*3 12.1 C 3.2 km/h
259 21-05-2019 21:30:00 12.1 C 10.19 g/m*3 12.1 C 4.8 km/h
260 21-05-2019 21:35:00 12.1 C 10.19 g/m*3 12.1 C 3.2 km/h
261 21-05-2019 21:40:00 12.1 C 10.19 g/m*3 12.1 C 6.4 km/h
262 21-05-2019 21:45:00 12.1 C 10.19 g/m*3 12.1 C 4.8 km/h
263 21-05-2019 21:50:00 12.1 C 10.19 g/m*3 12.1 C 4.8 km/h
264 21-05-2019 21:55:00 12.1 C 10.19 g/m*3 12.1 C 1.6 km/h
265 21-05-2019 22:00:00 12.1 C 10.19 g/m*3 12.1 C 6.4 km/h
266 21-05-2019 22:05:00 12.1 C 10.19 g/m*3 12.1 C 1.6 km/h
267 21-05-2019 22:10:00 12 C 10.12 g/m*3 12 C 9.7 km/h
268 21-05-2019 22:15:00 12.1 C 10.19 g/m*3 12.1 C 3.2 km/h
269 21-05-2019 22:20:00 12.1 C 10.19 g/m*3 12.1 C 1.6 km/h
270 21-05-2019 22:25:00 12.1 C 10.19 g/m*3 12.1 C 1.6 km/h
271 21-05-2019 22:30:00 12.1 C 10.19 g/m*3 12.1 C 3.2 km/h
272 21-05-2019 22:35:00 12 C 10.12 g/m*3 12 C 3.2 km/h
273 21-05-2019 22:40:00 12 C 10.23 g/m*3 12 C 4.8 km/h
274 21-05-2019 22:45:00 12 C 10.23 g/m*3 12 C 0 km/h
275 21-05-2019 22:50:00 12 C 10.23 g/m*3 12 C 4.8 km/h
Sensor: Nr:Datum:Temp:Abs-Feuchte:Windchill:Wind:
Aussen-T/F 276 21-05-2019 22:55:00 11.9 C 10.17 g/m*3 11.9 C 6.4 km/h
277 21-05-2019 23:00:00 11.9 C 10.17 g/m*3 11.9 C 0 km/h
278 21-05-2019 23:05:00 11.9 C 10.17 g/m*3 11.9 C 0 km/h
279 21-05-2019 23:10:00 11.9 C 10.17 g/m*3 11.9 C 0 km/h
280 21-05-2019 23:15:00 11.9 C 10.17 g/m*3 11.9 C 0 km/h
281 21-05-2019 23:20:00 11.9 C 10.17 g/m*3 11.9 C 0 km/h
282 21-05-2019 23:25:00 11.9 C 10.17 g/m*3 11.9 C 0 km/h
283 21-05-2019 23:30:00 11.9 C 10.17 g/m*3 11.9 C 0 km/h
284 21-05-2019 23:35:00 11.8 C 10.1 g/m*3 11.8 C 0 km/h
285 21-05-2019 23:40:00 11.8 C 10.1 g/m*3 11.8 C 0 km/h
286 21-05-2019 23:45:00 11.8 C 10.1 g/m*3 11.8 C 0 km/h
287 21-05-2019 23:50:00 11.8 C 10.1 g/m*3 11.8 C 0 km/h
288 21-05-2019 23:55:00 11.8 C 10.1 g/m*3 11.8 C 0 km/h

Legende:
   Min
   Max


Maximal/Minimal-Werte vom 21.05.2019 - 21.05.2019

Sensor Min Max Avg
Temp
(Aussen-T/F)
11.8 °C
21-05-2019  23:35:00
14.4 °C
21-05-2019  00:00:00
12.5 °C
Abs-Feuchte
(Aussen-T/F)
9.97 g/m*3
21-05-2019  11:30:00
10.78 g/m*3
21-05-2019  02:00:00
10.2 g/m*3
Windchill
(Aussen-T/F)
11.8 C
21-05-2019  23:35:00
14.4 C
21-05-2019  00:00:00
12.45 C

Die Daten stammen von einer Davis Vantage Pro 2 Wetter-Station und werden unter Linux mit der Software wview2wettercgi und aufbereitet. Alle Angaben erfolgen ohne Gewähr für ihre Vollständigkeit oder Richtigkeit.
Kontakt: Rainer Krienke krienke@uni-koblenz.de . Meine Webseiten an der Uni Koblenz oder privat.
Version: $Revision: 0.78 $